铱星星座 33星 (IRIDIUM 33)

导读

IRIDIUM 33(铱星33)是美国铱卫星公司铱星通信系统的组成部分,由摩托罗拉研发、洛克希德·马丁制造平台,1997年9月14日从拜科努尔航天发射场发射,质量689千克,运行在780公里高度、倾角86.4°近地轨道,设计寿命8年。它是全球卫星移动通信网络的一员,但在2009年2月与俄罗斯废弃卫星宇宙2251相撞,成为人类历史上首次两颗完整在轨卫星碰撞事件的主角,此次事故产生大量空间碎片,引发全球对太空碎片治理的关注。

Basic Information
目录编号:
24946
目录名称:
IRIDIUM 33
国际标识:
1997-051C
轨道中心:
EARTH
卫星名称:
铱星星座 33星
卫星全名:
铱星星座 33星 (IRIDIUM 33)
卫星状态:
在轨 (已飞行10503 天)
发射日期:
1997-09-14 UTC
国别 :
美国 (US)
星等 :
--
Orbit Information
数据来源 国际轨道数据 AOE轨道数据
星历时间 2026-06-17T08:19:13+0800
7小时前
查看轨道信息
2026-06-15T07:00:00+0800
2天前
查看轨道信息
半长轴 7152.708km 7152.711km
偏心率 0.0006939 0.0007107
轨道倾角 86.387° 86.385°
近地点辐角 342.326° 347.174°
升交点赤经 350.030° 350.893°
平近点角 17.769° 202.345°
近地点 769.607km 769.49km
远地点 779.535km 779.658km
周期 100.338分钟 100.338分钟
每日圈数 14.351491 14.351482
Detailed Information
平衡模式:
三轴稳定
覆盖范围:
全球
运营商:
铱星通信公司
运营商所在国:
美国
使用方式:
暂无
Satellite Introduction
铱星(Iridium)是由共66个运作中的通信卫星组成的卫星通信系统。这个系统原本规划77个通信卫星,所以用原子序数为77的铱元素来命名。铱卫星允许人们使用手持型电子设备进行全球性的语音及数据通讯。该卫星已退役。
2D Orbit Map
3D Orbit Map
Orbit Altitude Analysis Chart
Orbit Inclination Analysis Chart
Orbit Comprehensive Analysis Chart
View Comprehensive Chart